Location: Stara Lesna
(49.1528°N, 20.2911°E)
Time: 03:30:42
(UTC+02:00)

IRS-1D - Pass Details

Date: 13 July 2020
Orbit: 739 x 817 km, 98.6° (Epoch: 11 August)

Event Time Altitude Azimuth Distance (km) Brightness Sun altitude
Rises 03:10:47 0° 13° (NNE) 3,202 8.2 -12.0°
Reaches altitude 10° 03:13:05 10° 13° (NNE) 2,268 7.1 -11.8°
Maximum altitude 03:18:03 80° 288° (WNW) 758 3.4 -11.3°
Enters shadow 03:22:24 14° 201° (SSW) 2,012 5.1 -10.9°
